Regional Weather Roundup
Issued by NWS

Home | Current Version | Previous Version | Text Only | Print | Product List | Glossary On
Versions: 1 2 3 4 5 6 7 8 9 10 11 12 13 14 15 16 17 18 19 20 21 22 23 24 25 26 27 28 29 30 31 32 33 34 35 36 37 38 39 40 41 42 43 44 45 46 47 48 49 50
000
ASUS43 KDTX 030910
RWRMI
MICHIGAN HOURLY REGIONAL WEATHER ROUNDUP
NATIONAL WEATHER SERVICE DETROIT/PONTIAC MI
ISSUED BY NATIONAL WEATHER SERVICE GRAND RAPIDS MI
500 AM EDT THU SEP 03 2015

NOTE: "FAIR" INDICATES FEW OR NO CLOUDS BELOW 12,000 FEET WITH NO
SIGNIFICANT WEATHER AND/OR OBSTRUCTION TO VISIBILITY.

MIZ047>049-052>055-059>063-066>070-074>076-081>083-031000-
SOUTHEAST LOWER MICHIGAN

CITY           SKY/WX    TMP DP  RH WIND       PRES   REMARKS
ADRIAN         MOCLDY    68  66  93 SW3       29.98F FOG
ALMA           PTCLDY    70  69  96 SW5       29.95F FOG
ANN ARBOR      MOCLDY    67  65  93 SW6       29.96F FOG
BAD AXE        CLOUDY    62  61  99 CALM      29.97S FOG
DETROIT CITY   PTCLDY    71  66  84 CALM      29.96F
DETROIT        CLOUDY    73  68  84 CALM      29.96F
FLINT          PTCLDY    69  65  86 NE3       29.97S
GROSSE ILE     MOCLDY    70  66  88 CALM      29.95S
HILLSDALE      CLEAR     68  68 100 W3        30.00S FOG
HOWELL         PTCLDY    70  67  93 W6        29.98R

CITY           SKY/WX    TMP DP  RH WIND       PRES   REMARKS
JACKSON        PTCLDY    68  67  96 CALM      29.98F FOG
LANSING        PTCLDY    68  65  90 CALM      29.97S
MASON          CLEAR     68  65  92 CALM      29.98R FOG
MONROE         CLOUDY    70  68  94 CALM      29.95F FOG
MT. CLEMENS    PTCLDY    68  67  97 SW1       29.94F
PONTIAC        PTCLDY    67  66  97 CALM      29.97S FOG
PORT HOPE        N/A     66  66 100 SW3       29.95S
PORT HURON     PTCLDY    64  64 100 CALM      29.97S
TRI CITIES     PTCLDY    67  64  90 SE7       29.97R
YPSILANTI      MOCLDY    70  66  87 CALM      29.96F FOG
$$
MIZ043>046-050>051-056>058-064>065-071>073-077>080-031000-
SOUTHWEST LOWER MICHIGAN

CITY           SKY/WX    TMP DP  RH WIND       PRES   REMARKS
BATTLE CREEK   CLEAR     71  68  90 CALM      29.98F
BENTON HARBOR  CLOUDY    72  68  87 CALM      29.96S
BIG RAPIDS     PTCLDY    66  66  98 CALM      29.95S FOG
COLDWATER      PTCLDY    68  68  99 CALM      29.99S
HOLLAND        PTCLDY    69  66  90 CALM      29.96S
GRAND RAPIDS   PTCLDY    71  69  93 S3        29.96S FOG
KALAMAZOO      CLEAR     71  68  90 S5        29.98S
MARSHALL       CLEAR     69  68  96 CALM      29.97F FOG
MOUNT PLEASANT FOG       66  64  94 CALM      29.94S VSB 1
MUSKEGON       MOCLDY    74  67  78 S7        29.93F
STURGIS        PTCLDY    68  66  94 CALM      29.98S
$$
MIZ016>042-031000-
NORTHERN LOWER MICHIGAN

CITY           SKY/WX    TMP DP  RH WIND       PRES   REMARKS
ALPENA         MOCLDY    64  63  96 SW3       29.96S
BEAVER ISLAND  RAIN      65  63  95 E7        29.95S
BELLAIRE       CLOUDY    67  65  95 CALM      29.92S
CADILLAC       PTCLDY    70  67  92 S5        29.95F
CHARLEVOIX     CLOUDY    68  65  89 N17G31    29.97R
GAYLORD        MOCLDY    66  65  96 CALM      29.97S
HOUGHTON LAKE  PTCLDY    62  62 100 E3        29.97S FOG
MANISTEE       CLOUDY    70  66  88 CALM      29.91F
OSCODA         MOCLDY    64  64  99 CALM      29.96R FOG
PELLSTON       LGT RAIN  68  62  81 CALM      29.96S
TRAVERSE CITY  CLOUDY    71  68  90 W5        29.93R
LUDINGTON      CLOUDY    76  70  82 CALM      29.91S
$$
MIZ007>008-015-031000-
EASTERN UPPER MICHIGAN

CITY           SKY/WX    TMP DP  RH WIND       PRES   REMARKS
KINROSS        CLOUDY    64  63  94 CALM      29.97S
MACKINAC ISLAN CLOUDY    65  62  90 N9        29.95F
NEWBERRY       CLOUDY    63  62  96 S3        29.97F
S. S. MARIE    CLOUDY    66  63  90 CALM      29.96F
$$
MIZ004>006-011>014-085-031000-
CENTRAL UPPER MICHIGAN

CITY           SKY/WX    TMP DP  RH WIND       PRES   REMARKS
MANISTIQUE     CLOUDY    65  64  96 NE5       29.92F
ESCANABA       CLOUDY    66  66 100 E9        29.90R
MENOMINEE      CLOUDY    66  63  88 E9        29.88S
$$
MIZ001>003-009>011-084-031000-
WESTERN UPPER MICHIGAN

CITY           SKY/WX    TMP DP  RH WIND       PRES   REMARKS
IRON MOUNTAIN  CLOUDY    65  63  93 N5        29.93R
HOUGHTON       PTCLDY    60  59  96 E5        29.97S FOG
COPPER HARBOR    N/A     58  55  90 W6        29.96S
IRONWOOD         N/A     55  55 100 CALM      29.95R VSB 1/2
$$

ABBREVIATIONS USED IN REMARKS
   TC - TEMPERATURE IN CELSIUS
  WCI - WIND CHILL INDEX
   HX - HEAT INDEX
  VSB - VISIBILITY




USA.gov is the U.S. government's official web portal to all federal, state and local government web resources and services.